Location: Cabo di Oristano
(39.8500°N, 8.4333°E)
Time: 16:58:31
(UTC+00:00)

USA 234 - Pass Details

Date: 31 January 2023
Orbit: 1098 x 1109 km, 123.0° (Epoch: 30 January)

Event Time Altitude Azimuth Distance (km) Brightness Sun altitude
Rises 04:25:21 0° 117° (ESE) 3,923 7.2 -25.2°
Reaches altitude 10° 04:27:52 10° 114° (ESE) 2,967 6.4 -24.7°
Maximum altitude 04:34:16 59° 37° (NE) 1,263 3.6 -23.5°
Enters shadow 04:38:22 24° 326° (NW) 2,138 4.4 -22.7°
